User: anonymous   Login
Location: Unspecified
(0.0000°N, 0.0000°E)
Time: 00:20:28
(UTC+00:00)
Language:

Quakesat - Orbit

View from above orbital plane
View from above orbital plane
View from above satellite
View from above satellite

Ground track
Ground track

The orbit data is extracted from the following two-line orbital elements,

1 27845U 03031F   24176.56610647  .00000551  00000-0  26095-3 0  9994
2 27845  98.6668 183.9927 0009693 137.4124 222.7807 14.23602248 88735
Epoch (UTC): 24 June 2024 13:35:11
Eccentricity: 0.0009693
inclination: 98.6668°
perigee height: 806 km
apogee height: 820 km
right ascension of ascending node: 183.9927°
argument of perigee: 137.4124°
revolutions per day: 14.23602248
mean anomaly at epoch: 222.7807°
orbit number at epoch: 8873

The dashed part of the orbit path shows where the satellite is in the earth's shadow,  

DLR